Terug naar catalogus

STARLINK-36809

ActiefCommunicatieVLEO
NORAD 67929·PAYLOAD·🇺🇸 United States

Gelanceerd Feb 22, 2026 vanaf Vandenberg Space Force Base

Loading…

Volgende Passages (komende 24 uur)

TLE

VersSource: CelesTrak SupGP

Epoch: Sep 14, 2026, 16:11 UTC

1 67929C 26036AB  26257.67479167 -.00029395  00000+0 -10647-2 0  2575
2 67929  43.0024 257.8168 0001427 276.9989 193.2139 15.27591416    19

Volg STARLINK-36809 in realtime met AllMySat

Download on the App Store